TimeMST,TemperatureF,Dew PointF,Humidity,Sea Level PressureIn,VisibilityMPH,Wind Direction,Wind SpeedMPH,Gust SpeedMPH,PrecipitationIn,Events,Conditions,WindDirDegrees,DateUTC
12:53 AM,37.0,12.9,37,29.92,10.0,NW,4.6,-,N/A,,Clear,320,2012-12-03 07:53:00
1:53 AM,33.1,12.9,43,29.93,10.0,SSE,4.6,-,N/A,,Clear,160,2012-12-03 08:53:00
2:53 AM,37.9,12.9,36,29.89,10.0,SW,3.5,-,N/A,,Clear,230,2012-12-03 09:53:00
3:53 AM,36.0,17.1,46,29.89,10.0,NW,6.9,-,N/A,,Clear,310,2012-12-03 10:53:00
4:53 AM,35.1,18.0,50,29.93,10.0,Calm,Calm,-,N/A,,Scattered Clouds,0,2012-12-03 11:53:00
5:53 AM,37.9,18.0,45,29.97,10.0,NW,4.6,-,N/A,,Overcast,310,2012-12-03 12:53:00
6:53 AM,45.0,23.0,42,29.98,10.0,NNW,12.7,-,N/A,,Overcast,340,2012-12-03 13:53:00
8:53 AM,48.9,27.0,43,29.96,10.0,NNW,11.5,-,N/A,,Clear,330,2012-12-03 15:53:00
9:53 AM,52.0,30.0,43,30.00,10.0,NNW,9.2,-,N/A,,Clear,340,2012-12-03 16:53:00
10:53 AM,55.0,32.0,42,29.98,10.0,North,8.1,18.4,N/A,,Clear,360,2012-12-03 17:53:00
11:53 AM,54.0,30.9,41,29.99,10.0,North,6.9,-,N/A,,Mostly Cloudy,10,2012-12-03 18:53:00
12:53 PM,55.0,30.0,38,29.98,10.0,NNE,3.5,-,N/A,,Scattered Clouds,20,2012-12-03 19:53:00
1:53 PM,55.9,28.9,36,29.98,10.0,Calm,Calm,-,N/A,,Clear,0,2012-12-03 20:53:00
2:53 PM,59.0,26.1,28,29.95,10.0,WSW,8.1,-,N/A,,Partly Cloudy,250,2012-12-03 21:53:00
3:53 PM,57.0,26.1,30,29.98,10.0,Calm,Calm,-,N/A,,Mostly Cloudy,0,2012-12-03 22:53:00
4:53 PM,55.0,27.0,34,30.01,10.0,Calm,Calm,-,N/A,,Overcast,0,2012-12-03 23:53:00
5:53 PM,46.0,24.1,42,30.06,10.0,NW,8.1,-,N/A,,Clear,310,2012-12-04 00:53:00
6:53 PM,46.0,26.1,46,30.05,10.0,NNE,4.6,-,N/A,,Clear,20,2012-12-04 01:53:00
7:53 PM,41.0,25.0,53,30.09,10.0,NNE,6.9,-,N/A,,Clear,20,2012-12-04 02:53:00
8:53 PM,39.0,25.0,57,30.10,10.0,North,4.6,-,N/A,,Clear,350,2012-12-04 03:53:00
9:53 PM,36.0,25.0,64,30.13,10.0,North,8.1,-,N/A,,Clear,10,2012-12-04 04:53:00
11:53 PM,37.9,26.1,62,30.14,10.0,Calm,Calm,-,N/A,,Clear,0,2012-12-04 06:53:00